Location: Erp
(42.9417°N, 1.2009°E)
Time: 03:21:41
(UTC+00:00)

ACS3 Solar Sail - Visible Passes

Search period start: 09 March 2026 00:00
Search period end: 19 March 2026 00:00
Orbit: 887 x 973 km, 97.2° (Epoch: 8 March)

Date Brightness Start Highest point End Pass type
(mag) Time Alt. Az. Time Alt. Az. Time Alt. Az.
9 Mar 4.1 02:08:01 10° N 02:08:46 14° N 02:08:46 14° N visible
10 Mar 4.0 02:19:33 10° N 02:20:26 15° N 02:20:26 15° N visible
11 Mar 3.9 02:31:03 10° N 02:32:02 15° N 02:32:02 15° N visible
12 Mar 4.5 00:59:46 10° NNE 00:59:54 11° NNE 00:59:54 11° NNE visible
12 Mar 3.9 02:42:32 10° N 02:43:35 15° NNW 02:43:35 15° NNW visible
13 Mar 4.3 01:10:51 10° NNE 01:11:22 13° NNE 01:11:22 13° NNE visible
13 Mar 3.8 02:54:00 10° NNW 02:55:03 14° NNW 02:55:03 14° NNW visible
14 Mar 4.2 01:21:53 10° NNE 01:22:47 15° NNE 01:22:47 15° NNE visible
14 Mar 3.8 03:05:29 10° NNW 03:06:27 14° NNW 03:06:27 14° NNW visible
15 Mar 4.1 01:32:56 10° NNE 01:34:07 17° NNE 01:34:07 17° NNE visible
15 Mar 3.9 03:16:59 10° NNW 03:17:46 12° NNW 03:17:46 12° NNW visible
16 Mar 3.9 01:43:57 10° N 01:45:22 18° N 01:45:22 18° N visible
16 Mar 3.9 03:28:37 10° NNW 03:29:02 11° NNW 03:29:02 11° NNW visible
17 Mar 3.8 01:54:56 10° N 01:56:34 20° N 01:56:34 20° N visible
18 Mar 3.7 02:05:52 10° N 02:07:42 21° N 02:07:42 21° N visible
